Lapse_Rate
4.6 4.6 4.2 4.4 4.0 3.8 3.8 3.6 3.5 3.8 3.6 3.6 3.7 3.8 4.1 4.4 4.3 4.2 4.3 4.6 5.0 5.6 5.5 5.6 5.5 5.6 5.6 5.7 5.8 6.0 6.3 6.2 6.5 6.7 7.2 7.5 7.5 7.2 7.4 7.5 8.1 8.7 8.6 8.4 8.3 8.0 7.9 8.5 8.3 8.0 7.8 7.9 8.0 8.0
4.5 4.5 4.3 4.1 3.5 3.8 3.6 3.5 3.5 3.3 3.4 3.5 3.7 3.8 4.1 4.4 4.6 4.7 4.6 5.1 5.3 5.7 5.7 5.5 5.7 6.0 5.8 5.9 6.3 6.5 6.5 6.6 6.7 7.0 7.3 7.4 7.4 7.7 7.7 7.5 7.6 7.8 8.0 8.4 8.3 8.3 8.5 8.7 8.6 8.3 8.1 8.1 8.2 8.2
4.3 4.3 4.4 4.1 3.9 3.9 3.6 3.5 3.4 3.6 3.6 3.5 3.8 4.1 4.2 4.5 4.6 4.9 4.7 5.3 5.6 5.9 6.3 5.9 6.0 6.1 6.4 6.5 6.2 6.7 6.5 6.6 6.7 6.5 6.7 7.0 7.2 7.6 7.4 7.0 6.9 7.0 7.8 7.8 8.1 8.3 8.5 8.7 8.6 8.3 8.1 8.0 8.1 8.3
4.2 4.1 3.6 3.8 3.7 3.5 3.5 3.5 3.7 3.7 3.8 3.9 4.2 4.2 4.4 4.7 5.0 5.0 5.1 5.3 5.3 5.7 6.1 6.0 6.3 6.1 6.7 6.7 6.8 6.8 6.6 6.6 6.6 6.6 6.5 6.6 6.9 7.2 7.1 7.3 7.3 7.1 7.7 7.7 7.9 8.2 8.5 8.6 8.5 8.3 8.2 8.2 8.0 7.9
3.3 3.4 3.5 3.8 3.8 3.6 3.6 3.8 3.9 4.2 4.2 4.3 4.5 4.6 4.7 4.8 5.0 5.1 5.2 5.1 5.1 5.3 5.9 6.4 6.2 6.6 6.8 6.7 6.6 6.7 6.9 6.5 6.4 6.4 6.3 6.3 6.4 6.5 6.7 7.1 7.3 7.6 7.7 7.7 7.8 8.1 8.3 8.5 8.2 8.1 8.0 7.9 7.7 7.6
3.5 3.6 3.7 3.8 4.0 4.0 3.9 3.8 4.2 4.3 4.5 4.6 4.7 4.8 4.9 5.1 5.2 5.3 5.0 5.1 5.1 4.7 5.2 6.2 6.0 6.3 6.6 6.7 6.7 6.6 6.5 6.7 6.6 6.5 6.5 6.2 6.5 6.4 6.1 6.5 7.0 7.2 7.2 7.8 7.8 8.0 8.2 8.0 8.2 8.1 7.9 7.8 7.7 7.6
3.7 3.6 3.8 3.7 3.7 4.0 4.4 4.2 4.4 4.7 4.8 4.8 4.8 4.8 5.1 5.3 5.4 5.1 4.9 4.8 4.7 5.0 5.2 5.9 5.8 5.9 6.3 6.7 6.6 6.6 6.7 6.9 6.8 6.7 6.4 6.5 6.6 6.5 6.3 6.6 7.1 7.2 7.5 7.6 7.6 7.6 7.9 7.6 7.6 7.6 7.8 7.9 7.7 7.4
3.8 3.8 3.8 3.8 4.2 4.4 4.1 4.4 4.7 4.9 5.1 5.1 5.4 5.5 5.3 5.2 5.0 5.0 5.0 5.0 5.0 5.0 4.9 5.0 6.0 6.2 6.2 6.5 6.6 6.9 6.9 6.9 6.7 6.6 6.5 6.5 6.3 6.1 6.0 7.0 6.9 6.9 6.6 7.1 7.0 7.2 7.4 7.4 7.3 7.5 7.5 7.5 7.5 7.2
4.1 3.9 4.1 4.4 4.6 4.8 5.0 5.1 5.1 5.2 5.4 5.3 5.3 5.2 5.2 5.2 5.1 5.2 5.2 5.3 5.3 5.1 5.2 5.3 5.9 6.0 6.1 6.2 6.6 6.8 6.7 6.5 6.3 6.6 6.5 6.6 6.5 6.6 7.1 6.2 5.4 5.8 6.3 6.9 7.2 7.2 6.9 7.2 7.4 7.3 7.2 7.1 7.0 6.7
4.3 4.3 4.5 4.8 4.8 5.0 5.1 5.2 5.3 5.6 5.4 5.3 5.2 5.1 5.2 5.3 5.2 5.1 5.4 5.4 5.6 5.5 5.4 5.9 5.9 6.2 6.3 6.3 6.4 6.7 6.6 6.4 6.6 6.9 6.8 6.5 7.0 7.0 6.6 6.6 6.5 6.5 6.4 6.7 6.8 6.9 6.9 7.3 7.2 7.1 7.1 6.9 6.8 6.5
4.5 4.8 4.8 4.9 4.9 5.0 5.3 5.3 5.4 5.4 5.4 5.3 5.2 5.3 5.2 5.3 5.2 5.3 5.3 5.3 5.2 5.4 5.7 5.6 5.8 5.9 6.2 5.9 6.1 6.2 6.1 6.2 6.4 6.6 6.4 6.7 6.8 6.7 6.8 6.8 6.6 6.4 6.4 6.6 6.7 6.9 7.0 7.1 6.9 6.9 6.9 6.8 6.6 6.4
4.7 4.8 5.0 5.0 5.1 5.3 5.3 5.3 5.4 5.4 5.3 5.2 5.3 5.3 5.3 5.3 5.4 5.5 5.5 5.4 5.4 5.6 5.6 5.8 6.0 6.1 6.2 6.3 6.4 6.5 6.0 6.1 6.5 6.8 6.7 7.0 7.0 6.9 6.7 6.5 6.7 6.7 6.9 6.8 7.0 7.2 7.1 6.9 6.9 6.9 6.9 6.8 6.5 6.4
4.9 4.9 5.1 5.2 5.3 5.3 5.3 5.2 5.4 5.3 5.3 5.2 5.3 5.4 5.3 5.4 5.5 5.5 5.6 5.7 5.6 5.9 5.9 5.9 5.8 6.1 6.2 6.4 6.4 6.2 6.4 6.7 6.8 6.8 6.8 6.9 6.9 7.0 7.0 6.8 6.6 6.7 6.8 7.1 7.2 7.1 7.1 7.0 7.0 6.9 7.0 6.7 6.5 6.4
5.2 5.4 5.4 5.4 5.3 5.2 5.3 5.3 5.3 5.3 5.2 5.2 5.4 5.5 5.6 5.7 5.6 5.5 5.4 5.6 5.8 5.8 5.8 6.0 6.0 6.3 6.4 6.8 6.7 6.9 6.9 7.2 7.0 6.8 6.8 6.7 6.8 6.8 6.9 7.2 7.1 7.0 7.0 7.0 7.0 6.7 6.8 7.0 6.9 7.0 7.0 6.7 6.4 6.3
5.6 5.6 5.6 5.5 5.4 5.4 5.3 5.3 5.2 5.3 5.3 5.3 5.4 5.4 5.6 5.6 5.6 5.5 5.5 5.6 5.8 5.9 6.0 6.2 6.6 6.5 6.5 6.9 7.0 7.1 7.2 7.1 6.9 6.8 6.4 6.6 6.6 6.7 6.7 7.1 7.2 7.3 7.2 7.3 7.3 7.1 7.0 7.2 7.3 7.1 6.9 6.7 6.5 6.5
5.6 5.6 5.6 5.6 5.5 5.3 5.3 5.3 5.2 5.3 5.4 5.4 5.6 5.5 5.5 5.7 5.6 5.4 5.5 5.6 5.5 5.9 6.0 6.0 6.4 6.1 6.1 6.5 6.9 7.1 7.1 7.0 6.6 6.6 6.5 6.6 6.5 6.5 6.6 6.7 7.1 7.2 7.3 7.4 7.3 7.3 7.1 7.3 7.4 7.4 7.1 6.7 6.6 6.6
5.7 5.6 5.6 5.6 5.5 5.3 5.1 5.0 5.2 5.3 5.3 5.4 5.7 5.6 5.5 5.4 5.4 5.3 5.5 5.6 6.0 5.6 5.9 6.1 6.1 6.2 6.0 6.3 6.8 7.0 6.9 6.7 6.7 6.8 6.8 6.3 6.5 6.5 6.6 6.8 6.7 6.7 6.7 7.0 7.3 7.1 7.0 7.1 7.1 7.0 6.6 6.3 6.6 6.6
5.7 5.6 5.5 5.5 5.4 5.2 5.2 5.1 5.1 5.2 5.4 5.6 5.7 5.4 5.5 5.5 5.6 5.7 5.9 5.7 5.7 5.9 5.8 5.8 5.8 6.1 6.2 6.3 6.7 6.9 6.7 6.7 6.5 6.4 6.2 6.4 6.4 6.5 6.7 6.6 6.4 6.2 6.2 6.6 6.8 6.7 6.8 6.8 6.8 6.4 6.2 6.2 6.4 6.3
5.5 5.4 5.3 5.2 5.3 5.1 5.1 5.0 5.0 5.2 5.5 5.5 5.6 5.5 5.8 5.8 5.7 5.7 5.7 5.7 5.9 6.1 6.0 5.9 6.1 6.1 6.1 6.0 6.4 6.6 6.7 6.7 6.0 5.8 5.8 6.2 6.4 6.5 6.6 6.6 6.6 6.6 6.8 6.8 6.7 6.5 6.4 6.5 6.6 6.3 6.1 6.2 6.1 6.0
5.4 5.3 5.2 5.2 5.1 4.7 4.9 5.1 5.0 5.1 5.6 5.7 5.8 5.9 5.9 5.8 5.8 5.8 5.8 6.0 5.9 5.9 6.0 6.2 6.5 6.3 6.0 6.0 6.2 6.4 6.4 6.4 6.3 6.1 6.0 6.0 6.3 6.5 6.5 6.6 6.5 6.7 6.9 6.9 6.5 6.1 6.1 6.2 6.2 6.2 6.1 6.0 6.0 6.1
5.3 5.2 5.1 5.2 5.0 4.9 4.9 5.0 5.3 5.4 5.5 5.8 5.9 5.9 6.2 6.0 6.1 6.1 5.9 5.8 5.9 6.3 6.7 6.6 6.2 5.9 5.7 5.7 5.8 6.1 6.1 6.0 6.1 6.0 6.1 6.2 6.2 6.4 6.6 6.5 6.5 6.6 6.5 6.4 6.5 6.3 6.0 5.9 6.0 6.1 6.0 6.1 6.0 6.0
5.2 5.1 5.0 5.0 5.1 5.1 5.1 5.2 5.2 5.3 5.6 5.8 6.0 6.0 6.2 6.2 6.1 6.1 5.9 5.9 6.0 5.9 5.8 5.8 5.9 5.8 6.1 6.2 6.3 6.1 5.9 6.0 5.9 5.9 6.0 6.4 6.5 6.5 6.5 6.7 6.5 6.5 6.5 6.3 5.9 5.8 5.9 5.4 5.6 5.9 6.1 6.2 6.3 6.2
4.8 4.6 4.7 4.8 4.9 5.1 5.2 5.4 5.5 5.7 5.7 5.9 6.0 6.1 6.2 6.1 6.0 5.9 5.8 5.9 5.8 5.8 5.8 5.8 5.8 5.9 6.2 6.2 6.4 6.6 6.5 6.1 6.0 6.1 6.1 6.3 6.4 6.5 6.6 6.5 6.5 6.4 6.3 6.3 6.1 6.0 6.0 5.9 6.0 6.1 6.1 6.4 6.5 6.5
4.6 4.8 4.8 4.8 4.9 5.2 5.2 5.2 5.4 5.5 5.6 5.9 6.1 6.2 6.1 6.1 6.1 6.0 6.0 5.9 5.9 6.0 6.1 6.2 6.2 6.1 6.2 6.1 6.1 6.1 6.2 6.2 6.2 6.2 6.3 6.4 6.3 6.4 6.3 6.2 6.3 6.3 6.2 6.2 6.2 6.1 6.2 6.3 6.2 6.3 6.3 6.3 6.3 6.4
4.8 5.0 5.0 5.2 5.1 5.0 4.9 5.7 5.8 5.7 6.1 6.2 6.1 6.3 6.4 6.3 6.5 6.3 6.2 5.9 6.0 6.1 6.2 6.3 6.3 6.2 6.1 5.9 5.9 6.0 6.1 6.2 6.2 6.0 6.2 6.3 6.2 6.3 6.4 6.5 6.5 6.3 6.1 6.3 6.2 6.3 6.3 6.2 6.3 6.3 6.3 6.2 6.2 6.3
4.7 5.0 5.2 5.4 5.2 5.2 5.5 5.8 6.1 6.0 6.0 6.2 6.3 6.3 6.2 6.3 6.2 6.3 6.2 6.0 5.9 6.1 6.1 6.1 6.2 6.2 6.0 6.0 6.0 6.1 6.2 6.3 6.3 6.2 6.3 6.1 6.1 6.3 6.2 6.3 6.3 6.4 6.5 6.4 6.2 6.1 6.2 6.2 6.1 6.1 6.2 6.2 6.3 6.4
4.8 5.2 5.6 5.6 5.7 5.4 5.8 6.0 5.9 5.9 6.0 6.2 6.3 6.3 6.1 6.2 6.2 6.2 6.1 6.1 6.1 6.2 6.2 6.3 6.2 6.2 6.2 6.3 6.2 6.1 6.1 6.2 6.2 6.1 6.2 6.1 6.1 6.2 6.2 6.3 6.3 6.4 6.4 6.3 6.2 6.2 6.3 6.1 6.0 6.0 5.9 5.9 6.0 6.0
5.1 5.5 5.6 5.7 5.9 6.0 5.9 5.8 5.7 5.8 6.0 6.0 6.0 5.9 5.8 5.8 5.8 5.9 5.9 6.2 6.1 6.7 6.7 6.7 6.5 6.3 6.3 6.2 6.1 6.0 6.0 6.1 6.0 6.0 5.7 6.0 6.2 6.0 6.0 6.0 6.1 6.2 6.2 6.3 6.2 6.2 6.3 6.2 6.2 6.2 6.2 6.1 5.9 6.0
5.5 5.4 5.5 5.7 5.6 5.7 5.9 5.9 5.9 5.9 5.7 5.6 5.5 5.3 5.4 5.4 5.5 5.7 5.7 6.2 6.2 6.3 6.0 6.3 6.4 6.3 6.0 5.9 5.9 5.8 5.7 5.7 5.7 5.6 5.7 5.7 5.8 5.8 5.8 5.9 6.0 6.1 6.1 6.3 6.4 6.4 6.3 6.3 6.3 6.3 6.3 6.4 6.3 6.3
5.7 5.4 5.5 5.6 5.7 6.0 6.1 5.6 5.5 5.2 5.3 5.0 5.1 5.1 5.3 5.6 5.6 5.8 6.1 5.9 6.0 6.0 6.0 6.1 6.1 6.0 6.0 5.9 5.7 5.7 5.7 5.7 5.6 5.6 5.7 5.8 5.9 6.1 6.3 6.4 6.5 6.6 6.7 6.7 6.6 6.6 6.6 6.6 6.6 6.7 6.7 6.7 6.7 6.7
5.4 5.4 5.6 5.7 5.9 5.6 5.5 5.4 5.1 5.0 4.9 5.1 5.5 5.7 5.7 5.8 5.9 5.8 5.9 5.9 6.0 6.0 6.1 6.2 6.4 5.9 5.7 5.7 5.6 5.5 5.5 5.6 5.8 6.0 6.1 6.2 6.4 6.5 6.5 6.6 6.7 6.7 6.8 6.8 6.8 6.8 6.8 6.8 6.8 6.8 6.8 6.9 6.8 6.9
5.5 5.5 5.4 5.5 5.6 5.2 5.2 4.9 5.0 5.4 5.7 5.5 5.8 5.8 5.4 5.8 6.1 6.0 5.9 5.9 5.9 5.9 5.8 5.8 5.9 5.8 5.8 5.6 5.5 5.5 5.8 6.1 6.2 6.3 6.4 6.5 6.6 6.6 6.6 6.5 6.5 6.5 6.6 6.6 6.7 6.8 6.8 6.9 6.9 6.9 7.0 7.0 7.0 7.0
5.5 5.4 5.3 5.2 5.5 5.4 5.4 5.4 5.6 5.9 6.0 5.7 5.8 5.6 5.7 5.8 5.9 5.8 5.7 5.7 5.8 5.7 5.6 5.5 5.5 5.6 5.6 5.6 5.7 5.8 6.1 6.3 6.5 6.6 6.7 6.8 6.8 6.7 6.7 6.6 6.6 6.7 6.7 6.7 6.8 6.8 6.8 6.9 6.9 6.9 6.9 7.0 7.0 7.0
Wind_Speed
11 10 10 8 8 9 10 11 11 10 12 12 12 12 13 12 11 3 4 5 2 3 11 13 11 9 6 4 3 5 6 2 2 3 4 4 4 8 10 4 3 5 8 4 3 6 9 9 8 7 2 3 8 8
11 10 9 7 8 9 10 11 11 10 11 14 11 11 12 14 12 7 2 2 3 3 7 12 16 17 16 15 7 4 3 3 2 2 0 1 2 3 6 4 3 3 3 4 7 6 1 9 2 4 6 6 7 9
9 9 8 8 8 10 10 11 11 11 13 15 9 9 11 11 11 8 2 2 2 3 8 7 7 10 13 21 19 5 3 4 1 1 2 2 3 1 6 9 11 4 4 2 3 6 5 9 3 3 6 5 6 6
8 7 8 9 9 10 10 11 11 11 13 14 9 9 10 11 10 8 2 0 1 3 4 5 2 7 5 10 17 23 14 0 4 2 2 2 2 2 2 1 7 5 6 6 4 2 2 4 7 3 6 3 4 5
7 7 7 8 9 10 10 11 12 12 13 15 11 9 10 11 12 10 10 6 7 2 3 7 20 5 6 12 16 17 17 15 5 3 3 2 1 1 2 2 4 5 4 5 4 6 2 6 7 5 8 8 5 4
6 6 7 8 9 9 10 10 11 13 13 14 15 12 9 10 11 3 2 1 6 3 3 4 5 5 6 2 11 11 10 7 4 3 3 3 2 4 1 3 4 3 1 4 4 9 2 4 5 4 3 2 3 1
6 7 8 8 9 9 9 10 11 13 14 14 17 13 12 10 2 3 3 1 5 0 2 4 5 3 3 4 3 3 8 3 4 3 3 2 3 4 4 5 7 3 5 3 1 3 5 3 2 6 3 4 4 3
7 7 7 8 9 9 10 12 12 14 15 15 18 15 15 15 10 4 3 14 15 2 2 3 5 4 2 1 3 3 4 3 5 3 1 3 3 2 4 12 14 11 15 9 5 5 3 0 3 2 3 3 4 3
7 7 7 7 7 9 10 11 14 16 17 18 17 15 2 2 2 1 5 6 10 2 3 2 3 3 5 1 1 2 3 4 1 3 3 5 4 6 11 9 4 10 15 14 3 3 9 10 5 6 4 4 7 6
6 6 6 7 8 10 11 12 13 16 20 18 3 2 2 2 8 2 3 2 3 3 3 3 3 4 3 2 0 2 3 2 3 3 1 4 7 9 8 12 13 15 17 14 8 6 5 4 8 8 11 7 6 3
4 5 6 7 8 9 11 11 13 16 8 1 2 2 3 9 1 1 2 3 3 3 4 4 5 4 1 2 1 1 1 1 2 3 3 3 3 2 5 7 8 9 7 9 11 10 8 8 8 9 9 9 6 6
5 6 7 8 9 11 11 9 10 4 2 3 3 3 3 2 2 2 3 2 4 3 3 2 2 4 3 2 2 1 2 1 4 2 2 2 0 4 9 10 10 7 8 11 12 13 12 11 10 7 7 7 8 8
5 7 8 9 10 11 10 6 7 9 9 1 2 2 1 1 2 4 3 2 2 4 3 5 5 3 2 3 3 3 5 3 1 2 2 2 5 7 7 9 9 8 7 11 14 13 13 13 8 9 8 6 7 9
7 9 10 10 11 12 7 7 7 6 2 2 2 3 3 3 4 1 3 3 3 2 7 7 4 3 2 3 1 4 1 2 2 2 1 4 9 10 8 8 10 11 9 8 11 12 13 13 11 8 9 7 9 10
9 11 12 14 13 11 7 5 5 2 1 2 2 3 5 5 3 2 2 1 1 5 5 5 3 3 2 2 2 1 3 1 1 2 2 4 8 8 7 8 10 10 11 9 7 4 11 11 10 9 8 8 8 8
10 12 3 6 12 8 4 3 2 1 2 2 4 4 4 4 4 3 1 3 4 3 3 3 3 1 3 3 3 3 2 2 3 1 2 2 5 6 7 6 5 6 9 11 10 5 3 3 6 7 9 8 8 8
7 1 12 6 8 7 6 1 2 3 3 3 4 5 6 6 6 6 3 3 1 2 2 3 2 2 1 2 3 2 1 3 2 1 2 2 5 7 6 5 5 6 6 8 8 7 3 1 4 7 9 9 8 8
2 2 12 2 2 2 1 1 2 3 4 4 4 3 4 5 5 6 3 2 1 2 2 2 3 2 2 3 2 1 0 1 3 2 2 4 6 6 4 7 7 7 7 7 7 5 3 1 4 6 5 6 6 6
4 6 8 7 3 2 2 3 3 3 5 3 4 5 4 5 7 8 7 5 4 2 3 2 3 2 3 2 2 2 2 2 3 3 4 6 5 5 4 3 3 3 5 6 7 5 4 4 4 3 4 5 5 4
10 12 11 7 3 1 2 2 2 3 3 2 3 4 4 4 4 3 5 3 4 3 4 4 4 2 2 1 3 0 2 2 3 4 4 4 4 5 5 4 4 4 5 6 6 4 4 4 2 3 4 5 6 7
2 2 1 4 1 2 2 2 3 2 4 4 4 3 4 3 4 3 3 5 4 4 5 7 7 6 6 5 4 2 4 2 4 4 4 6 6 5 6 5 4 4 4 4 6 5 4 3 4 3 3 4 5 5
1 4 1 2 2 2 2 3 3 2 3 4 4 3 4 3 3 2 3 3 3 3 3 3 5 6 8 9 9 7 5 4 5 4 5 4 5 6 6 5 3 5 3 3 3 4 4 3 4 3 3 3 3 3
4 4 2 2 2 1 4 2 3 3 3 2 2 3 3 3 2 2 3 2 1 1 2 3 7 8 10 11 8 7 6 6 5 6 6 5 5 5 5 5 3 3 3 2 2 3 4 4 5 6 5 5 5 4
1 1 2 2 3 3 2 3 3 3 2 3 3 4 3 2 0 2 2 1 1 2 3 7 6 7 3 4 4 5 4 5 6 6 5 5 5 3 2 2 2 1 2 3 1 1 2 3 4 4 4 3 3 3
1 1 1 3 3 3 3 3 3 2 3 3 3 3 2 2 2 3 3 2 1 1 4 5 6 5 5 4 3 2 2 2 4 5 3 4 2 2 1 1 2 2 2 3 2 1 0 1 1 2 2 2 3 3
2 3 5 3 2 3 2 3 2 3 3 3 4 2 2 2 3 3 3 2 1 0 3 5 5 5 4 4 5 3 4 4 3 3 2 1 3 1 1 2 2 2 1 2 1 2 2 3 3 4 3 3 2 3
3 4 5 3 2 2 3 4 5 4 4 3 3 2 1 3 3 1 2 0 1 6 5 5 5 5 4 5 4 4 5 4 1 2 3 3 2 3 3 3 4 3 3 1 2 2 3 4 4 4 4 3 3 4
3 3 5 2 3 3 4 4 3 3 3 3 2 2 2 3 2 2 1 4 6 7 7 7 6 5 5 4 3 3 2 3 7 7 4 6 6 5 6 4 4 5 4 5 4 3 4 5 6 6 7 7 7 5
4 3 2 7 5 4 5 5 4 3 2 2 3 3 3 3 7 11 10 7 6 5 5 5 2 2 2 0 2 3 0 2 2 7 8 6 5 6 5 4 4 5 5 6 6 5 6 5 5 5 6 6 6 6
4 5 4 4 4 6 5 6 3 3 2 1 2 5 8 10 7 7 8 7 4 3 3 3 1 2 3 5 6 8 6 5 5 6 7 6 4 4 5 5 6 5 5 5 5 5 5 4 3 4 5 5 5 7
1 4 4 4 4 5 6 4 2 2 1 2 5 8 11 5 2 1 2 2 2 3 4 4 5 4 6 5 6 8 7 6 7 8 6 4 4 4 5 5 4 4 4 4 4 5 6 6 6 7 8 9 9 8
4 7 4 4 4 3 2 2 2 3 4 5 4 1 1 3 1 2 4 4 3 6 5 6 8 6 5 5 7 7 8 5 5 5 7 5 5 6 6 6 6 6 6 6 6 6 7 8 7 8 9 11 12 12
4 4 5 4 4 3 3 2 3 3 2 1 2 1 2 3 5 3 3 5 3 3 3 5 7 8 9 9 8 7 8 8 9 10 11 12 10 8 6 6 6 7 7 7 7 8 10 11 10 11 11 12 12 12
Wind_Direction
281 283 289 295 306 314 320 322 323 329 333 328 330 337 337 346 343 331 289 229 257 255 280 263 253 250 251 253 265 351 316 175 263 215 218 183 178 185 180 249 260 166 160 169 141 207 243 158 148 212 164 120 166 174
274 276 286 295 305 306 313 315 317 319 315 321 329 337 334 336 345 328 269 205 190 240 274 290 268 258 246 243 267 248 295 310 276 292 47 304 195 183 183 217 56 267 237 178 214 209 57 190 203 154 172 158 179 185
268 272 279 287 293 300 307 311 315 321 319 318 317 325 327 328 329 339 279 268 239 263 280 263 254 251 234 231 226 242 223 239 224 308 321 299 265 283 182 206 248 242 191 160 193 194 217 198 215 215 195 195 175 197
263 265 275 285 294 301 307 309 315 320 317 316 317 322 322 323 324 321 280 290 282 283 284 290 319 261 258 221 211 220 237 197 357 328 272 273 259 276 38 25 207 211 169 185 209 264 223 228 223 189 183 175 149 171
258 270 282 291 296 300 308 312 318 319 316 312 315 315 315 317 320 306 268 255 231 249 291 294 302 255 301 231 223 212 220 236 267 289 251 245 261 155 354 260 244 168 204 195 203 175 221 188 183 167 174 199 196 203
263 276 284 291 289 293 306 311 317 318 315 309 312 311 311 314 329 304 278 116 211 173 287 303 321 282 308 177 189 191 197 198 206 219 238 219 246 160 168 287 286 243 205 269 311 154 113 75 126 145 161 152 132 184
262 277 288 290 292 294 301 305 309 316 313 305 307 310 311 305 265 260 320 39 106 74 258 286 282 269 310 125 122 144 179 189 211 237 237 223 197 188 176 224 242 216 349 4 215 130 98 180 164 184 166 101 107 100
273 277 284 294 295 296 296 299 303 311 309 301 304 299 298 292 269 266 242 239 221 288 267 274 281 293 354 118 128 137 150 206 203 252 209 205 141 214 235 233 256 291 301 304 266 265 324 123 234 161 159 171 205 202
267 273 280 291 297 303 306 307 303 308 308 305 300 301 273 186 217 251 60 111 166 267 287 250 287 303 348 45 102 156 186 177 189 232 219 174 171 212 221 224 209 258 270 276 290 259 255 233 222 202 193 212 236 219
268 278 288 296 296 302 306 313 310 313 312 307 286 243 227 171 313 261 222 190 172 203 226 253 257 269 317 321 324 215 196 172 195 203 162 234 243 256 238 227 217 219 234 245 228 235 226 219 218 205 216 229 236 216
266 284 293 296 296 296 297 312 316 327 321 292 321 275 329 317 237 229 248 220 176 237 211 241 235 271 230 257 323 7 315 40 240 164 229 228 255 305 352 325 287 272 262 220 225 237 238 249 242 221 223 224 213 196
283 286 290 294 297 296 295 305 320 322 320 309 290 300 285 274 211 249 248 221 210 252 186 231 288 223 276 246 260 96 322 230 238 146 237 241 17 344 345 341 332 314 281 256 239 243 244 249 240 218 228 225 212 191
284 291 293 295 297 289 300 298 308 300 301 276 239 247 230 187 251 230 234 220 302 7 359 349 327 301 264 227 232 185 217 220 144 232 260 324 354 346 345 354 354 343 306 268 254 241 239 242 219 208 221 209 183 183
293 293 295 294 290 289 283 292 300 308 265 261 254 291 213 221 239 141 357 329 343 333 293 291 253 237 207 212 214 243 93 214 173 229 21 14 346 329 326 342 351 355 347 316 247 238 230 220 218 220 218 186 175 184
301 302 297 289 275 278 259 265 283 256 266 267 261 243 236 248 265 155 119 59 331 277 281 297 268 238 210 251 195 223 181 214 293 49 355 340 334 339 333 344 348 356 356 2 347 271 234 217 201 199 183 168 180 176
311 308 256 283 287 259 223 229 219 239 250 246 235 254 253 281 258 215 145 255 208 259 271 237 263 61 346 322 258 228 211 165 141 87 299 323 343 331 337 337 336 353 352 357 1 345 322 233 187 164 149 167 175 173
313 290 335 24 91 132 163 201 217 231 257 235 242 247 267 279 274 279 273 275 283 289 295 308 278 68 287 290 258 233 9 98 104 342 301 4 8 329 318 318 310 327 336 341 349 14 359 227 159 154 174 185 178 177
264 338 14 42 38 131 184 232 268 264 254 244 246 267 231 242 262 269 262 224 247 295 296 306 307 274 268 282 328 108 164 305 245 283 351 7 357 324 304 321 333 341 324 316 324 339 5 198 215 218 175 152 161 184
265 298 314 335 292 291 225 204 226 258 251 270 260 256 259 265 252 257 262 248 228 241 283 260 262 234 220 233 267 39 23 355 321 332 310 330 326 325 330 353 359 350 341 340 322 320 324 298 275 255 206 181 198 189
269 278 277 285 243 254 276 207 212 258 271 308 257 259 256 255 276 256 259 212 179 190 215 228 227 236 248 178 202 249 320 331 326 316 327 346 335 323 332 343 326 325 333 347 359 345 321 304 293 267 230 219 213 207
247 249 203 168 199 230 278 296 259 260 300 280 294 280 274 257 254 255 253 169 184 213 231 239 249 257 243 244 239 241 271 249 285 284 299 302 325 309 312 322 314 307 310 330 342 354 353 357 330 310 268 236 239 262
246 191 189 196 253 210 261 235 260 284 264 276 289 242 272 277 265 222 140 194 228 231 238 278 274 277 273 266 266 251 249 231 276 279 265 274 289 306 317 327 331 324 341 345 339 1 17 5 334 25 31 346 317 284
295 184 207 172 237 205 266 178 251 222 258 262 269 262 240 255 234 163 246 223 262 198 319 295 298 287 264 267 265 257 244 248 262 263 266 256 267 275 287 310 345 327 358 1 8 9 16 360 32 38 42 40 25 20
315 254 245 226 193 261 255 232 219 261 260 256 246 264 254 258 244 223 256 237 61 31 342 330 314 327 288 242 251 259 255 235 257 263 252 245 250 250 268 310 326 292 246 293 301 308 334 336 330 342 347 356 16 21
263 241 190 258 248 241 244 239 230 232 260 269 261 264 281 293 260 228 190 125 48 332 339 332 335 352 347 332 334 343 3 266 267 278 297 229 265 268 274 300 301 290 253 277 345 2 354 238 302 330 319 332 358 359
245 201 179 237 224 220 249 273 237 243 255 253 241 235 254 252 257 248 146 148 191 286 347 334 327 323 326 336 330 323 349 339 328 282 316 213 186 195 103 89 77 94 19 257 293 315 344 4 5 358 0 1 341 311
244 234 216 233 258 287 269 253 246 257 260 261 257 262 257 262 253 141 110 249 329 339 314 303 284 281 287 300 302 307 322 335 289 26 75 39 34 34 37 32 31 10 336 317 287 302 338 337 334 326 315 305 273 250
252 273 231 211 215 229 260 270 261 243 241 237 265 274 271 250 289 25 284 314 299 306 302 293 277 260 264 271 287 283 359 68 112 124 122 80 62 56 52 52 35 2 28 24 0 347 327 310 301 299 302 301 307 311
236 232 242 253 239 241 226 225 241 241 234 271 284 264 252 318 322 302 296 292 295 294 287 290 295 186 188 299 27 13 68 146 135 113 89 75 64 46 21 22 25 26 19 14 39 21 0 356 355 350 349 337 332 324
238 205 224 236 227 229 232 205 236 262 283 277 356 319 296 278 269 258 269 273 264 260 272 271 91 124 141 125 105 78 48 47 48 66 73 62 44 13 14 15 15 10 2 360 4 6 19 356 7 352 348 343 338 336
212 187 223 236 258 250 252 270 263 252 261 295 275 278 283 301 324 198 239 270 250 184 162 137 111 128 127 122 106 100 85 51 55 59 63 66 45 26 12 7 358 351 351 352 354 359 356 351 352 348 346 343 341 336
209 214 219 239 255 270 284 220 226 245 262 261 274 268 289 232 174 48 19 2 41 94 97 115 109 95 81 90 89 85 78 83 61 45 40 46 40 27 19 13 6 3 3 6 6 4 359 353 347 347 338 334 332 328
221 224 218 257 260 254 201 191 231 259 247 4 311 66 120 15 59 24 32 24 21 43 85 98 94 102 101 94 93 89 79 82 81 68 64 52 39 19 22 21 23 23 26 26 23 16 14 6 2 355 350 343 338 333